Weather in Ust-Vym

Russia / Komi Republic     62°13′31″N   50°23′41″E
temp.,
°C
wind,
m/s
gust,
m/s
humid.,
%
clouds,
%
prec.,
mm/h
press.,
hPa
HPBL,
m
11 april, sun
sun1100:000s312910 0.0 1024323
03:00−1s311930 0.0 1023302
06:000s413875 0.0 1022428
09:00+5ssw513745 0.0 1021823
12:00+4wsw51192100 0.2 1022916
15:00+6wsw510675 0.4 10241595
18:00+4wsw410731 0.0 1026361
21:00+2sw414760 0.0 1027546
12 april, mon
mon1200:00+2wsw515782 0.0 1029748
03:00+1wsw413835 0.0 1032588
06:000wsw412865 0.0 1034537
09:00+4wsw48663 0.0 1035671
12:00+7wsw47506 0.0 10361094
15:00+8wsw375148 0.0 10361301
18:00+5ssw276990 0.0 1035131
21:00+3ssw4137868 0.0 1034332
13 april, tue
tue1300:00+3ssw4147796 0.0 1033371
03:00+2ssw3129256 0.0 1033321
06:00+3ssw3119397 0.0 1031312
09:00+8ssw41079100 0.0 1030496
12:00+9ssw41177100 0.0 1027747
15:00+9ssw41384100 1.6 1024719
18:00+10sw41286100 0.0 1023689
21:00+9ssw41494100 0.0 1021520
14 april, wed
wed1400:00+10sw41393100 0.1 1020489
03:00+8sw3109687 0.1 1020325
06:00+8ssw389685 0.0 1020267
09:00+12sw488299 0.1 1019627
12:00+14sw597178 0.6 10171081
15:00+13sw61376100 0.9 10161213
18:00+12wsw51380100 0.3 10141137
21:00+9nw61084100 2.8 10161019
15 april, thu
thu1500:00+6nw486791 0.1 1018934
03:00+3nw3769100 0.1 1021685
06:00+2nnw2574100 0.0 1022677
09:00+3nne2262100 0.0 1022842
12:00+5ene1151100 0.0 10211140
15:00+6sw1148100 0.0 10201320
18:00+4nnw1157100 0.0 101929
21:00+2n116698 0.0 101816